Weather History for Land O' Lakes, WI

Change the Weather History Date:

Tuesday, November 19, 2013

  Actual Average (KEGV) Record (KEGV)
Temperature  
Mean Temperature 24 °F -  
Max Temperature 35 °F 39 °F 55 °F (2012)
Min Temperature 12 °F 22 °F 8 °F (1992)
Degree Days  
Heating Degree Days 42    
Moisture  
Dew Point 17 °F    
Average Humidity 68    
Maximum Humidity 93    
Minimum Humidity 46    
Precipitation  
Precipitation 0.00 in - - ()
Sea Level Pressure  
Sea Level Pressure 30.18 in    
Wind  
Wind Speed 5 mph (South)    
Max Wind Speed 15 mph    
Max Gust Speed 22 mph    
Visibility 10 miles    
Events      
Averages and records for this station are not official NWS values.
T = Trace of Precipitation, MM = Missing Value Source: NWS Daily Summary

Daily Weather History Graph

Daily Weather History Graph

Search for Another Location

Airport:

Trip Planner

Search our weather history database for the weather conditions in past years. The results will help you decide how hot, cold, wet, or windy it might be!

Date:

Astronomy

Nov. 19, 2013 Rise Set
Actual Time 7:03 AM CST 4:20 PM CST
Civil Twilight 6:30 AM CST 4:53 PM CST
Nautical Twilight 5:54 AM CST 5:30 PM CST
Astronomical Twilight 5:18 AM CST 6:05 PM CST
Moon 6:10 PM CST (11/19) 8:43 AM CST (11/19)
Length of Visible Light 10h 22m
Length of Day
9h 16m
Waning Gibbous, 96% of the Moon is Illuminated
Nov 19
Waning Gibbous
Nov 25
Last Quarter
Dec 2
New
Dec 9
First Quarter
Dec 17
Full

Hourly Weather History & Observations

Time (CST) Temp. Windchill Dew Point Humidity Pressure Visibility Wind Dir Wind Speed Gust Speed Precip Events Conditions
12:15 AM 25.7 °F 18.0 °F 16.7 °F 69% 30.17 in 10.0 mi NW 6.9 mph - N/A   Overcast
12:35 AM 25.5 °F 19.9 °F 16.7 °F 69% 30.18 in 10.0 mi WNW 4.6 mph - N/A   Overcast
12:55 AM 25.5 °F 17.8 °F 16.7 °F 69% 30.18 in 10.0 mi NW 6.9 mph - N/A   Overcast
1:15 AM 25.2 °F 19.5 °F 16.7 °F 70% 30.19 in 10.0 mi WNW 4.6 mph - N/A   Overcast
1:35 AM 25.2 °F 18.3 °F 16.7 °F 70% 30.19 in 10.0 mi NW 5.8 mph - N/A   Overcast
1:55 AM 25.2 °F 17.3 °F 16.9 °F 71% 30.20 in 10.0 mi NNW 6.9 mph 10.4 mph N/A   Overcast
2:15 AM 24.8 °F 16.1 °F 16.7 °F 71% 30.20 in 10.0 mi NNW 8.1 mph - N/A   Overcast
2:35 AM 24.6 °F 20.3 °F 16.7 °F 72% 30.21 in 10.0 mi NW 3.5 mph - N/A   Overcast
2:55 AM 23.9 °F 19.5 °F 16.9 °F 75% 30.20 in 10.0 mi NNW 3.5 mph - N/A   Mostly Cloudy
3:15 AM 22.8 °F - 17.8 °F 81% 30.20 in 10.0 mi Calm Calm - N/A   Scattered Clouds
3:35 AM 20.7 °F - 17.1 °F 86% 30.21 in 10.0 mi Calm Calm - N/A   Scattered Clouds
3:55 AM 19.0 °F - 16.3 °F 89% 30.22 in 10.0 mi Calm Calm - N/A   Scattered Clouds
4:15 AM 17.1 °F - 15.1 °F 92% 30.23 in 10.0 mi Calm Calm - N/A   Clear
4:35 AM 16.7 °F - 14.9 °F 93% 30.23 in 10.0 mi Calm Calm - N/A   Clear
4:55 AM 16.0 °F - 14.2 °F 93% 30.23 in 10.0 mi Calm Calm - N/A   Clear
5:15 AM 14.5 °F - 12.7 °F 93% 30.24 in 10.0 mi Calm Calm - N/A   Scattered Clouds
5:35 AM 14.4 °F - 12.4 °F 92% 30.24 in 10.0 mi Calm Calm - N/A   Scattered Clouds
5:55 AM 13.8 °F - 12.0 °F 93% 30.25 in 10.0 mi Calm Calm - N/A   Clear
6:15 AM 12.9 °F - 10.8 °F 91% 30.25 in 10.0 mi Calm Calm - N/A   Clear
6:35 AM 12.9 °F - 11.1 °F 93% 30.25 in 10.0 mi Calm Calm - N/A   Clear
6:55 AM 12.0 °F - 9.1 °F 88% 30.25 in 10.0 mi Calm Calm - N/A   Clear
7:15 AM 12.7 °F - 10.9 °F 92% 30.25 in 10.0 mi Calm Calm - N/A   Clear
7:35 AM 13.3 °F - 11.1 °F 91% 30.26 in 10.0 mi Calm Calm - N/A   Clear
7:55 AM 15.6 °F - 13.5 °F 91% 30.26 in 10.0 mi Calm Calm - N/A   Clear
8:15 AM 18.1 °F - 15.8 °F 91% 30.26 in 10.0 mi Calm Calm - N/A   Clear
8:35 AM 21.6 °F - 18.5 °F 88% 30.26 in 10.0 mi Calm Calm - N/A   Clear
8:55 AM 23.5 °F - 19.2 °F 84% 30.26 in 10.0 mi Calm Calm - N/A   Clear
9:15 AM 25.3 °F 21.1 °F 19.9 °F 80% 30.26 in 10.0 mi SE 3.5 mph - N/A   Clear
9:35 AM 26.4 °F 19.8 °F 19.4 °F 75% 30.26 in 10.0 mi SE 5.8 mph - N/A   Clear
9:55 AM 27.5 °F 21.1 °F 19.6 °F 72% 30.26 in 10.0 mi SSE 5.8 mph - N/A   Clear
10:15 AM 28.4 °F 23.3 °F 19.0 °F 68% 30.25 in 10.0 mi SSE 4.6 mph - N/A   Clear
10:35 AM 29.1 °F 23.0 °F 18.7 °F 65% 30.25 in 10.0 mi SE 5.8 mph - N/A   Clear
10:55 AM 30.2 °F 22.6 °F 19.0 °F 63% 30.24 in 10.0 mi South 8.1 mph - N/A   Clear
11:15 AM 31.5 °F 25.8 °F 19.2 °F 61% 30.23 in 10.0 mi SSE 5.8 mph - N/A   Clear
11:35 AM 32.0 °F 24.8 °F 18.3 °F 57% 30.22 in 10.0 mi SSE 8.1 mph - N/A   Clear
11:55 AM 32.5 °F 25.5 °F 17.1 °F 53% 30.21 in 10.0 mi SSE 8.1 mph - N/A   Clear
12:15 PM 33.1 °F 28.7 °F 17.6 °F 53% 30.21 in 10.0 mi SSE 4.6 mph - N/A   Clear
12:35 PM 34.3 °F 27.7 °F 18.1 °F 52% 30.21 in 10.0 mi SSE 8.1 mph - N/A   Clear
12:55 PM 34.7 °F 26.9 °F 17.6 °F 50% 30.20 in 10.0 mi South 10.4 mph - N/A   Clear
1:15 PM 34.9 °F 28.3 °F 17.4 °F 49% 30.20 in 10.0 mi South 8.1 mph - N/A   Clear
1:35 PM 35.1 °F 28.6 °F 17.6 °F 49% 30.19 in 10.0 mi SSE 8.1 mph 16.1 mph N/A   Clear
1:55 PM 35.4 °F 28.4 °F 17.6 °F 48% 30.18 in 10.0 mi South 9.2 mph - N/A   Clear
2:15 PM 35.6 °F 28.6 °F 16.9 °F 47% 30.17 in 10.0 mi SSE 9.2 mph - N/A   Clear
2:35 PM 35.6 °F 29.9 °F 16.7 °F 46% 30.17 in 10.0 mi South 6.9 mph 16.1 mph N/A   Clear
2:55 PM 34.9 °F 27.7 °F 17.2 °F 49% 30.16 in 10.0 mi South 9.2 mph 16.1 mph N/A   Scattered Clouds
3:15 PM 34.7 °F 28.1 °F 17.4 °F 49% 30.16 in 10.0 mi SSE 8.1 mph - N/A   Scattered Clouds
3:35 PM 34.2 °F 30.0 °F 17.6 °F 51% 30.15 in 10.0 mi SSE 4.6 mph - N/A   Clear
3:55 PM 33.8 °F 27.7 °F 17.8 °F 52% 30.15 in 10.0 mi SSE 6.9 mph 16.1 mph N/A   Clear
4:15 PM 33.1 °F 26.1 °F 17.6 °F 53% 30.14 in 10.0 mi SSE 8.1 mph - N/A   Clear
4:35 PM 32.5 °F 24.8 °F 17.1 °F 53% 30.14 in 10.0 mi South 9.2 mph - N/A   Clear
4:55 PM 32.0 °F 26.4 °F 17.4 °F 55% 30.13 in 10.0 mi SSE 5.8 mph 9.2 mph N/A   Clear
5:15 PM 31.8 °F 24.6 °F 17.8 °F 56% 30.13 in 10.0 mi SSE 8.1 mph - N/A   Clear
5:35 PM 31.5 °F 23.5 °F 18.3 °F 58% 30.14 in 10.0 mi South 9.2 mph - N/A   Clear
5:55 PM 31.5 °F 22.9 °F 18.5 °F 59% 30.14 in 10.0 mi SSE 10.4 mph 16.1 mph N/A   Scattered Clouds
6:15 PM 31.6 °F 23.7 °F 18.5 °F 58% 30.13 in 10.0 mi SSE 9.2 mph 18.4 mph N/A   Overcast
6:35 PM 31.6 °F 22.6 °F 18.3 °F 58% 30.12 in 10.0 mi SSE 11.5 mph 19.6 mph N/A   Overcast
6:55 PM 31.5 °F 21.8 °F 18.5 °F 59% 30.11 in 10.0 mi SSE 12.7 mph 18.4 mph N/A   Overcast
7:15 PM 31.6 °F 21.6 °F 18.5 °F 58% 30.11 in 10.0 mi SSE 13.8 mph 19.6 mph N/A   Overcast
7:35 PM 31.6 °F 22.6 °F 18.3 °F 58% 30.10 in 10.0 mi SSE 11.5 mph 20.7 mph N/A   Overcast
7:55 PM 31.8 °F 23.3 °F 18.7 °F 58% 30.10 in 10.0 mi South 10.4 mph 18.4 mph N/A   Overcast
8:15 PM 31.8 °F 22.3 °F 19.4 °F 60% 30.10 in 10.0 mi South 12.7 mph 21.9 mph N/A   Overcast
8:35 PM 31.8 °F 22.8 °F 20.1 °F 62% 30.09 in 10.0 mi South 11.5 mph 16.1 mph N/A   Overcast
8:55 PM 31.8 °F 23.3 °F 20.3 °F 62% 30.09 in 10.0 mi South 10.4 mph 16.1 mph N/A   Overcast
9:15 PM 32.0 °F 24.2 °F 20.7 °F 63% 30.08 in 10.0 mi SSE 9.2 mph 18.4 mph N/A   Scattered Clouds
9:35 PM 32.0 °F 23.0 °F 21.2 °F 64% 30.08 in 10.0 mi SSE 11.5 mph 18.4 mph N/A   Mostly Cloudy
9:55 PM 32.0 °F 22.5 °F 21.6 °F 65% 30.09 in 10.0 mi South 12.7 mph 18.4 mph N/A   Mostly Cloudy
10:15 PM 32.0 °F 24.2 °F 22.1 °F 67% 30.08 in 10.0 mi South 9.2 mph 17.3 mph N/A   Scattered Clouds
10:35 PM 32.0 °F 22.1 °F 22.5 °F 68% 30.08 in 10.0 mi South 13.8 mph 21.9 mph N/A   Mostly Cloudy
10:55 PM 32.0 °F 21.6 °F 22.6 °F 68% 30.08 in 10.0 mi South 15.0 mph 21.9 mph N/A   Overcast
11:15 PM 32.5 °F 23.2 °F 22.8 °F 67% 30.08 in 10.0 mi South 12.7 mph 18.4 mph N/A   Overcast
11:35 PM 32.5 °F 23.2 °F 22.6 °F 67% 30.08 in 10.0 mi South 12.7 mph 18.4 mph N/A   Overcast
11:55 PM 32.9 °F 25.3 °F 22.6 °F 66% 30.08 in 10.0 mi South 9.2 mph 19.6 mph N/A   Overcast